Wind_Speed
31 30 30 30 31 34 36 36 35 35 34 35 38 33 33 30 28 26 25 23 20 16 13 11 8 5 7 16 11 8 8 6 7 6 10 9 13 5 2 4 5 2 4 6 8 14 12
30 32 31 32 31 31 32 33 33 31 30 29 31 27 26 26 24 25 25 22 19 17 15 13 12 10 8 10 10 7 8 8 8 9 12 11 6 5 1 2 1 7 11 15 14 18 17
29 29 30 30 29 30 30 30 30 28 26 25 23 23 22 22 21 21 20 19 16 14 13 10 9 14 18 11 8 5 6 8 8 9 9 8 6 4 4 6 8 9 6 7 9 6 5
26 26 26 27 27 26 25 26 26 25 22 20 19 19 19 19 18 16 15 13 11 10 10 9 8 5 8 6 5 6 8 7 6 4 5 5 7 2 1 6 7 5 4 5 6 11 5
25 24 23 23 23 23 23 23 22 21 19 17 16 17 17 16 14 12 10 8 7 6 5 6 8 5 5 5 6 7 6 7 5 3 5 4 5 3 2 3 4 5 3 6 7 6 6
23 23 23 22 20 19 18 18 17 16 15 13 13 14 13 11 10 7 8 8 10 4 3 6 9 4 7 6 7 10 9 7 4 9 2 2 2 2 3 4 2 6 6 5 8 5 8
21 21 20 20 20 20 19 18 17 16 13 9 8 7 12 14 17 18 11 3 2 3 17 9 6 4 3 4 4 4 7 7 5 3 2 4 3 2 4 5 6 5 5 8 7 12 5
22 21 20 18 18 18 18 17 18 17 14 11 5 4 5 7 12 15 15 8 5 2 3 5 5 4 2 4 2 2 5 3 2 2 3 4 3 5 5 6 5 5 6 8 9 5 5
22 21 20 19 18 16 16 16 16 15 14 11 8 5 3 9 16 13 14 12 6 2 2 1 2 2 2 2 3 3 3 2 0 2 2 3 5 7 2 4 5 4 5 5 7 6 5
20 21 20 19 19 18 17 16 15 15 14 12 10 8 8 10 7 13 8 11 6 2 4 5 2 1 3 3 3 3 3 2 2 2 4 5 4 2 3 5 4 5 4 5 6 8 4
19 19 19 20 20 19 18 18 18 16 15 15 14 14 11 9 9 10 9 8 3 0 5 3 3 3 5 2 6 1 3 1 2 3 5 5 2 3 4 5 5 8 3 6 4 6 4
22 21 19 18 18 19 21 19 18 18 18 17 16 15 11 9 10 11 9 3 1 5 3 4 3 3 3 1 2 3 2 2 3 1 1 7 6 3 4 3 3 8 5 3 2 1 3
22 23 23 23 20 20 18 20 21 20 19 19 17 14 10 8 8 9 6 1 5 6 1 3 2 3 2 3 3 0 3 4 2 5 5 6 2 3 2 4 4 6 5 4 5 4 5
20 23 24 25 25 23 21 18 19 22 21 20 18 14 8 3 8 7 4 4 7 2 3 3 3 3 1 2 2 2 2 3 1 3 2 4 7 3 2 3 2 3 1 3 4 3 5
17 18 21 23 25 24 24 23 19 20 22 20 19 10 3 5 7 7 3 5 5 4 2 5 4 3 3 1 1 4 1 2 4 4 1 2 6 4 4 3 5 3 2 2 2 1 4
16 18 19 21 23 23 23 24 21 20 21 21 18 6 3 8 9 6 4 2 2 3 1 2 2 1 3 3 3 3 2 2 2 4 2 1 6 3 4 1 1 4 1 3 2 4 5
16 18 19 20 22 23 22 22 24 21 21 22 11 3 4 9 7 3 3 4 3 2 1 3 2 3 3 3 2 2 3 2 4 3 3 4 3 5 2 5 6 3 2 2 3 3 2
17 18 18 20 22 22 22 21 23 24 21 21 9 3 5 8 3 3 1 2 2 3 3 3 2 4 4 1 3 3 4 5 9 9 4 4 3 5 9 1 2 2 5 5 4 4 2
18 19 20 21 22 22 21 21 19 21 22 24 13 4 4 6 2 2 4 3 3 3 4 3 3 5 2 3 3 5 3 2 9 6 5 5 1 5 8 4 2 4 4 3 4 2 6
18 18 18 20 21 21 20 18 16 17 17 20 7 3 3 3 2 1 3 4 3 4 4 5 4 2 1 3 4 4 3 1 6 3 2 5 3 7 6 7 2 4 5 5 5 3 4
18 18 19 19 21 20 19 15 13 14 14 14 5 3 3 4 2 1 1 3 3 3 4 5 2 6 7 3 3 5 4 3 2 3 3 2 4 4 11 18 19 21 18 11 12 11 8
21 19 17 17 18 18 17 15 13 12 12 8 5 3 4 6 9 3 4 4 5 4 5 4 5 4 8 7 9 7 5 5 7 2 6 3 4 2 9 6 7 12 16 18 20 19 17
26 22 18 18 18 18 17 15 14 14 12 4 3 7 3 5 3 1 4 4 3 2 7 8 10 2 5 15 25 27 23 17 11 9 8 6 2 3 6 7 12 7 7 15 6 5 13
26 22 20 19 19 20 19 17 16 13 12 10 11 10 5 4 4 4 3 3 7 11 8 11 10 6 7 7 10 15 17 15 11 10 13 6 5 3 5 7 3 4 6 11 12 8 18
17 18 19 19 19 17 16 14 13 15 16 14 13 13 7 4 12 11 16 13 17 20 14 18 28 23 15 5 4 5 3 2 2 0 6 5 4 2 3 3 9 10 4 7 7 8 12
16 17 16 19 21 22 21 24 25 18 18 21 17 17 17 6 9 21 18 14 6 6 6 11 15 8 7 3 2 3 4 3 3 2 5 4 1 4 1 3 6 4 3 4 4 6 4
18 18 18 17 17 17 17 19 19 17 18 21 18 15 17 9 17 22 7 5 5 5 4 4 4 4 9 3 4 5 5 3 5 7 6 3 2 12 10 5 9 13 4 6 1 5 5
17 18 18 18 18 16 16 17 17 17 17 19 21 20 20 17 23 23 26 25 20 13 4 3 3 4 2 4 5 6 5 6 3 5 7 10 9 6 5 6 9 12 6 7 5 3 5
17 17 17 17 18 18 17 16 16 16 14 15 17 15 16 25 26 29 36 35 38 36 32 16 8 2 5 2 2 3 3 1 5 4 2 4 8 6 13 10 5 10 9 15 24 26 29
Wind_Direction
53 58 57 63 67 66 63 63 69 73 74 81 90 85 75 76 83 87 93 100 105 98 84 87 85 93 100 84 83 70 46 46 59 47 44 35 42 27 39 327 330 239 301 306 295 296 288
55 54 59 62 68 71 69 67 70 74 76 80 86 84 79 72 76 87 91 93 94 88 79 78 69 95 92 81 104 75 60 56 48 42 39 32 25 359 273 295 312 314 290 291 293 284 274
60 59 57 58 63 67 65 67 72 77 78 78 79 76 74 70 87 94 96 96 87 82 79 73 85 75 83 83 92 65 55 53 48 37 37 29 15 353 332 330 330 299 307 316 282 313 273
59 61 62 58 58 60 63 65 66 69 75 79 76 72 68 69 79 85 90 84 74 71 66 63 60 78 89 84 57 24 19 22 27 32 31 359 353 9 29 318 333 347 34 352 302 319 293
53 55 59 60 60 57 55 58 61 61 66 72 76 73 67 65 65 70 72 68 54 69 60 37 50 72 83 55 31 23 12 6 15 3 301 284 334 18 28 33 355 5 287 288 302 292 275
48 50 51 51 52 54 55 53 49 53 61 69 76 72 60 53 49 40 46 70 59 4 347 358 34 52 43 31 35 30 22 1 327 327 13 18 21 51 34 71 257 276 284 255 259 281 291
45 45 45 45 47 47 44 44 49 51 53 68 79 59 71 68 48 38 22 301 344 37 50 61 29 59 35 4 345 17 8 329 329 333 3 346 26 265 259 217 224 257 259 263 265 280 272
39 40 38 37 39 40 40 40 38 38 41 45 44 41 107 38 12 2 359 46 32 68 58 53 44 43 358 345 319 324 306 328 336 284 303 10 244 244 249 251 246 267 273 278 285 278 282
35 35 33 31 29 27 26 26 28 27 26 25 15 1 291 320 329 341 6 29 23 128 95 38 338 329 340 304 262 300 316 334 204 318 353 185 254 318 261 291 283 262 230 258 263 302 262
30 29 30 28 24 22 18 15 13 10 7 0 353 338 315 315 340 342 6 4 21 123 76 311 9 355 329 304 269 293 295 352 19 301 317 239 272 259 272 276 211 280 211 248 283 320 298
31 26 22 22 22 20 15 14 10 4 359 355 349 337 320 332 338 353 340 342 11 130 50 267 297 310 308 267 309 329 279 260 228 257 79 262 258 270 278 233 182 246 239 258 265 277 325
22 22 20 15 20 18 12 12 7 3 359 351 346 347 335 322 332 344 341 336 131 42 283 347 285 336 353 251 250 276 253 277 275 242 239 246 295 262 230 283 223 289 297 333 53 125 269
10 9 8 10 12 12 15 7 5 358 358 353 347 344 339 330 338 341 347 7 34 90 285 308 316 350 345 287 307 236 350 5 45 25 1 321 252 274 240 315 337 9 12 339 359 6 234
359 358 357 358 359 3 4 9 3 358 352 352 348 342 341 6 347 350 346 53 68 255 262 328 319 308 262 358 270 320 332 343 69 72 13 49 328 194 158 204 272 315 19 137 284 302 287
347 349 348 349 349 353 356 360 6 358 351 348 348 348 3 4 358 348 333 51 197 199 316 333 320 328 322 340 302 10 246 225 207 177 16 8 270 302 217 191 124 329 356 312 251 270 286
344 341 340 339 339 342 347 349 357 359 355 351 348 3 24 357 352 349 64 224 223 221 138 66 318 39 312 305 354 10 284 210 203 193 134 251 299 230 293 110 122 166 186 21 10 319 296
336 336 334 332 335 338 345 349 349 354 358 355 353 356 349 345 349 16 107 239 279 258 222 167 258 292 274 304 290 270 245 249 174 172 164 153 139 290 310 202 186 138 197 135 139 187 228
326 328 330 332 332 335 342 346 347 349 360 0 2 2 344 345 2 46 91 214 303 242 212 257 228 216 221 263 274 274 247 224 179 155 175 209 176 274 237 271 350 260 200 156 131 252 198
317 319 323 327 332 335 338 344 349 349 359 358 344 322 339 352 75 335 302 277 253 207 227 184 262 222 178 254 280 214 266 330 171 156 171 172 281 325 339 8 23 243 216 140 99 60 209
311 312 317 319 323 327 330 340 349 348 354 355 352 359 348 19 61 100 343 271 271 234 244 204 227 176 185 263 218 292 284 333 201 216 172 167 181 197 217 234 213 229 208 194 155 147 207
299 293 294 300 308 317 324 335 342 342 347 358 355 359 342 305 354 269 336 295 289 269 218 227 259 213 177 254 266 227 224 286 181 203 125 118 241 241 251 263 266 265 256 223 209 212 210
290 294 293 294 302 307 314 325 329 330 332 350 321 343 336 285 295 287 194 235 220 279 184 228 227 202 192 209 207 250 202 189 231 121 161 174 265 351 293 259 258 264 243 231 235 239 252
279 282 284 286 291 296 305 309 311 312 318 313 273 275 267 277 269 244 232 252 292 317 252 252 223 214 238 238 245 259 266 258 227 169 186 172 172 17 271 330 316 294 240 198 186 197 218
283 277 280 285 285 287 293 295 295 300 302 282 281 275 208 244 206 209 259 280 280 271 258 280 255 221 259 257 289 288 267 254 222 214 185 151 150 162 279 339 311 239 169 184 199 223 208
293 283 279 283 288 279 286 287 291 295 298 288 284 283 248 248 235 257 259 265 276 281 266 262 275 263 260 278 329 305 283 319 166 68 196 180 141 268 263 258 297 288 182 154 180 279 212
290 290 287 280 281 278 279 281 288 288 291 290 285 279 264 272 214 250 266 273 273 259 276 250 254 253 207 148 175 247 243 286 222 161 32 108 120 168 176 240 252 260 110 167 174 287 208
288 287 287 287 292 286 280 276 282 282 279 277 269 268 269 261 266 249 224 251 263 283 281 291 249 203 203 162 197 217 240 199 220 186 167 145 204 218 227 259 279 264 191 143 140 240 159
288 288 289 285 284 292 292 288 288 288 284 281 275 276 272 272 273 258 257 257 257 247 235 265 309 215 205 210 193 204 218 220 200 166 177 170 169 200 191 216 278 176 110 172 225 280 316
293 294 292 290 290 286 283 292 294 290 293 290 282 280 280 270 267 266 270 270 263 262 268 262 252 287 201 215 265 326 280 227 190 243 140 215 203 200 195 208 271 191 260 262 276 286 288
Height
1538 1534 1531 1527 1525 1522 1520 1517 1513 1510 1508 1506 1505 1507 1506 1506 1506 1507 1507 1509 1511 1513 1514 1515 1515 1515 1514 1517 1524 1524 1524 1524 1524 1523 1521 1522 1522 1524 1525 1524 1522 1522 1519 1516 1515 1514 1513
1544 1541 1537 1533 1530 1527 1525 1523 1522 1519 1516 1514 1514 1513 1513 1513 1513 1513 1514 1515 1516 1517 1517 1517 1517 1517 1517 1520 1525 1525 1525 1525 1524 1524 1523 1524 1526 1526 1524 1523 1523 1521 1519 1516 1512 1510 1508
1548 1546 1543 1540 1537 1534 1532 1530 1527 1525 1524 1523 1522 1521 1520 1519 1519 1519 1519 1520 1520 1520 1520 1519 1519 1520 1519 1525 1526 1527 1526 1525 1525 1524 1525 1526 1526 1525 1524 1523 1522 1520 1520 1515 1510 1508 1505
1552 1550 1547 1545 1543 1540 1538 1536 1534 1532 1530 1529 1527 1526 1525 1524 1524 1524 1523 1523 1523 1523 1522 1522 1522 1522 1525 1528 1527 1527 1527 1527 1527 1527 1526 1528 1526 1524 1523 1523 1522 1522 1522 1526 1510 1507 1503
1557 1554 1552 1549 1547 1545 1543 1542 1539 1537 1535 1534 1532 1531 1530 1530 1529 1528 1528 1527 1527 1526 1526 1525 1523 1521 1527 1529 1529 1528 1528 1527 1527 1527 1528 1527 1525 1524 1523 1525 1530 1529 1531 1524 1518 1506 1504
1561 1558 1556 1553 1551 1549 1547 1545 1544 1542 1540 1538 1537 1535 1534 1533 1532 1531 1530 1529 1529 1527 1526 1525 1525 1527 1531 1532 1530 1529 1529 1530 1530 1528 1527 1526 1525 1526 1527 1530 1546 1533 1529 1522 1520 1507 1503
1565 1563 1560 1557 1554 1552 1550 1548 1546 1544 1543 1542 1541 1539 1538 1536 1534 1533 1531 1529 1532 1531 1528 1532 1533 1532 1533 1533 1533 1532 1531 1530 1530 1529 1529 1527 1530 1529 1526 1524 1523 1524 1524 1524 1514 1504 1504
1568 1565 1563 1560 1558 1555 1553 1551 1549 1547 1545 1544 1543 1541 1540 1538 1536 1535 1533 1531 1533 1535 1534 1534 1534 1534 1533 1533 1533 1532 1531 1531 1530 1531 1528 1531 1531 1523 1522 1521 1520 1519 1520 1520 1509 1503 1501
1571 1568 1565 1563 1560 1558 1555 1553 1551 1549 1547 1545 1544 1542 1540 1538 1536 1535 1533 1534 1533 1533 1534 1536 1535 1534 1534 1534 1532 1531 1531 1530 1529 1528 1527 1532 1523 1520 1519 1519 1519 1517 1517 1515 1513 1503 1498
1574 1571 1567 1565 1562 1559 1557 1555 1552 1550 1548 1546 1544 1542 1541 1539 1538 1535 1534 1533 1532 1532 1545 1540 1536 1536 1535 1533 1532 1530 1529 1531 1529 1529 1527 1526 1518 1518 1519 1519 1517 1518 1507 1507 1506 1506 1512
1575 1573 1570 1566 1563 1561 1558 1555 1553 1550 1548 1545 1543 1541 1539 1537 1537 1536 1536 1533 1532 1534 1566 1538 1535 1534 1532 1533 1531 1530 1529 1527 1528 1527 1531 1523 1518 1518 1518 1514 1514 1513 1505 1506 1504 1502 1507
1576 1574 1571 1568 1565 1563 1559 1556 1553 1550 1547 1544 1542 1539 1537 1537 1535 1535 1533 1532 1533 1547 1560 1538 1533 1532 1531 1529 1528 1527 1527 1527 1526 1525 1526 1523 1520 1519 1516 1512 1511 1507 1506 1504 1506 1507 1506
1576 1574 1571 1568 1565 1563 1560 1557 1553 1550 1548 1544 1540 1538 1536 1536 1536 1533 1532 1533 1545 1552 1541 1535 1535 1532 1533 1531 1528 1528 1527 1529 1531 1536 1535 1527 1518 1514 1514 1514 1511 1511 1514 1530 1522 1532 1511
1578 1575 1572 1569 1565 1562 1560 1557 1554 1550 1547 1543 1540 1537 1536 1535 1534 1533 1532 1534 1550 1538 1538 1536 1534 1531 1531 1529 1528 1528 1529 1533 1531 1533 1544 1543 1530 1512 1511 1512 1514 1515 1517 1542 1539 1526 1516
1580 1577 1573 1570 1566 1563 1559 1556 1554 1551 1546 1542 1539 1537 1536 1536 1534 1533 1534 1552 1546 1542 1539 1538 1535 1534 1532 1530 1532 1531 1529 1532 1531 1531 1533 1542 1526 1511 1509 1508 1512 1514 1525 1515 1526 1523 1514
1580 1578 1574 1571 1567 1564 1560 1556 1553 1550 1546 1542 1539 1537 1537 1536 1534 1534 1536 1544 1540 1538 1537 1538 1538 1535 1536 1534 1533 1532 1531 1528 1529 1530 1531 1534 1540 1514 1510 1508 1509 1509 1513 1528 1534 1534 1514
1580 1577 1574 1571 1567 1563 1560 1557 1553 1550 1546 1542 1539 1538 1538 1536 1535 1534 1549 1547 1539 1538 1538 1539 1539 1538 1537 1536 1534 1532 1529 1526 1526 1530 1531 1533 1540 1520 1514 1511 1509 1513 1515 1517 1528 1524 1537
1579 1576 1573 1570 1567 1564 1560 1558 1554 1549 1546 1543 1540 1540 1539 1538 1538 1541 1546 1540 1539 1536 1536 1538 1538 1538 1537 1535 1535 1534 1531 1525 1523 1526 1531 1532 1538 1540 1513 1507 1508 1508 1508 1511 1524 1529 1531
1576 1574 1572 1569 1566 1563 1561 1558 1555 1552 1548 1545 1542 1541 1540 1539 1547 1544 1540 1539 1537 1536 1536 1537 1538 1538 1537 1536 1536 1532 1528 1524 1524 1526 1529 1530 1541 1551 1508 1513 1508 1509 1507 1509 1518 1522 1520
1573 1571 1569 1567 1565 1563 1560 1558 1556 1554 1551 1548 1545 1545 1541 1540 1542 1543 1542 1538 1535 1533 1534 1534 1533 1534 1537 1535 1534 1532 1529 1526 1526 1527 1528 1528 1537 1535 1526 1508 1509 1510 1505 1507 1509 1538 1515
1570 1569 1567 1565 1563 1562 1560 1558 1556 1554 1553 1551 1549 1549 1548 1546 1542 1542 1543 1541 1538 1534 1534 1534 1532 1531 1532 1535 1532 1533 1528 1526 1526 1527 1529 1531 1541 1528 1517 1510 1504 1498 1497 1498 1504 1493 1494
1565 1564 1563 1563 1562 1560 1558 1557 1556 1554 1552 1552 1551 1550 1549 1546 1544 1543 1541 1538 1536 1533 1532 1530 1532 1526 1528 1529 1523 1522 1522 1523 1522 1526 1527 1529 1532 1534 1511 1499 1500 1491 1483 1483 1482 1482 1480
1560 1559 1559 1558 1558 1557 1556 1554 1553 1552 1551 1550 1548 1548 1548 1544 1542 1544 1540 1534 1531 1531 1526 1525 1525 1526 1526 1519 1515 1513 1513 1513 1513 1517 1523 1526 1531 1533 1513 1499 1493 1481 1460 1464 1464 1462 1462
1554 1554 1553 1554 1553 1553 1553 1552 1551 1549 1549 1549 1547 1546 1545 1539 1539 1538 1534 1533 1531 1530 1528 1523 1523 1522 1517 1514 1513 1510 1508 1508 1509 1510 1512 1522 1527 1529 1519 1508 1483 1437 1443 1445 1450 1445 1444
1549 1548 1548 1548 1548 1548 1548 1548 1547 1547 1546 1545 1544 1543 1540 1534 1530 1530 1529 1528 1525 1523 1522 1518 1515 1513 1512 1515 1514 1509 1508 1505 1505 1507 1509 1511 1518 1524 1523 1518 1473 1431 1440 1444 1447 1430 1423
1545 1544 1543 1543 1542 1542 1542 1543 1543 1543 1543 1541 1540 1539 1536 1531 1524 1524 1524 1523 1522 1519 1516 1511 1509 1508 1510 1510 1515 1515 1502 1489 1498 1508 1509 1511 1511 1519 1522 1516 1474 1431 1433 1435 1437 1438 1416
1540 1539 1539 1538 1538 1537 1536 1536 1536 1536 1537 1536 1533 1533 1531 1524 1519 1520 1520 1519 1517 1515 1511 1508 1507 1507 1508 1507 1511 1513 1501 1491 1489 1497 1510 1515 1516 1507 1506 1505 1473 1436 1434 1436 1440 1429 1413
1535 1534 1534 1533 1533 1533 1532 1531 1531 1530 1531 1529 1527 1528 1527 1518 1511 1511 1513 1515 1515 1513 1511 1509 1509 1504 1506 1505 1499 1496 1491 1483 1482 1483 1490 1490 1499 1502 1499 1499 1478 1429 1436 1436 1420 1413 1412
1532 1531 1529 1528 1528 1528 1528 1528 1526 1526 1525 1524 1524 1523 1521 1515 1505 1505 1505 1506 1506 1506 1507 1502 1501 1499 1497 1501 1497 1490 1486 1486 1472 1471 1476 1479 1465 1466 1465 1451 1427 1428 1423 1420 1416 1411 1409